Location: Bude?ti
(46.4667°N, 22.7667°E)
Time: 20:35:33
(UTC+00:00)

Daily predictions for brighter satellites

Satellite Brightness Start Highest point End
(mag) Time Altitude Azimuth Time Altitude Azimuth Time Altitude Azimuth
CENTAUR R/B 4.0 16:02:06 10° W 16:07:47 34° NNW 16:14:29 10° NE
Landsat 5 4.2 16:05:02 10° NNE 16:08:58 34° E 16:12:58 10° SSE
Cosmos 1727 Rocket 4.3 16:03:11 10° N 16:09:12 47° ENE 16:15:07 10° SSE
Cosmos 1656 3.6 16:04:47 10° SSW 16:10:19 77° ESE 16:15:48 10° NNE
Okean-O 4.4 16:08:35 10° E 16:10:44 14° ENE 16:12:55 10° NNE
Cosmos 1937 Rocket 4.3 16:08:38 10° SW 16:13:41 56° WNW 16:18:46 10° NNE
ARGOS 3.6 16:08:51 10° SE 16:13:51 41° ENE 16:18:53 10° N
YAOGAN 1 3.7 16:12:06 10° ESE 16:15:29 23° ENE 16:18:52 10° NNE
Cosmos 1697 Rocket 3.1 16:10:13 10° S 16:15:31 44° ESE 16:20:52 10° NE
Cosmos 1048 Rocket 4.2 16:10:32 10° NNW 16:15:48 52° ENE 16:20:59 10° SE
Meteor 1-24 Rocket 4.0 16:10:29 10° NNW 16:16:10 80° W 16:22:02 10° S
Cosmos 2084 Rocket 3.2 16:14:00 10° SSW 16:17:50 64° SE 16:21:42 10° NE
Genesis I 4.0 16:14:11 10° NNW 16:17:59 35° NE 16:21:46 10° ESE
Cosmos 2366 rocket 4.0 16:12:51 10° S 16:18:59 76° E 16:25:13 10° NNE
Timation 1 Rocket 4.5 16:13:05 10° NNW 16:19:07 84° WSW 16:25:06 10° SSE
Cosmos 1455 Rocket 4.5 16:17:12 10° SE 16:20:05 17° E 16:23:00 10° NE
Cosmos 1959 Rocket 4.5 16:15:33 10° S 16:21:47 79° E 16:27:57 10° N
Cosmos 2227 Rocket 2.2 16:16:48 10° NNW 16:22:31 87° ENE 16:28:11 10° SSE
CZ-4C R/B 3.6 16:20:38 10° NNE 16:23:49 33° E 16:26:54 10° SSE
Cosmos 1908 4.3 16:21:04 10° SE 16:24:16 25° E 16:27:28 10° NE
Cosmos 864 Rocket 4.4 16:18:13 10° S 16:24:21 80° E 16:30:31 10° N
Cosmos 389 Rocket 3.2 16:22:10 10° SSE 16:25:08 28° E 16:28:06 10° NNE
H-2A R/B 3.4 16:24:03 10° NE 16:26:43 17° E 16:29:23 10° SE
CZ-4 R/B 2.1 16:29:28 10° SE 16:32:57 30° ENE 16:36:29 10° N
CZ-2C R/B 2.9 16:27:42 10° NNE 16:33:13 54° E 16:38:40 10° S
Cosmos 1470 3.4 16:31:19 10° SSW 16:35:15 62° W 16:39:13 10° N
Cosmos 1758 3.2 16:31:38 10° S 16:35:37 75° E 16:39:36 10° NNE
Cosmos 1125 Rocket 3.8 16:32:54 10° S 16:37:55 46° ESE 16:42:55 10° NNE
SL-08 R/B 4.5 16:34:02 10° S 16:40:06 62° E 16:46:18 10° NNE
Cosmos 405 3.8 16:36:57 10° SSW 16:40:19 53° WNW 16:43:42 10° N
Cosmos 1703 3.8 16:39:26 10° N 16:43:04 35° ENE 16:46:41 10° SE
Okean 1 Rocket 3.0 16:39:47 10° S 16:44:06 87° ESE 16:48:28 10° N
Cosmos 2082 3.6 16:41:17 10° NNW 16:46:56 70° ENE 16:52:31 10° SE
Meteor 1-21 Rocket 4.4 16:41:23 10° N 16:47:08 56° ENE 16:52:54 10° SSE
Cosmos 1953 2.7 16:43:30 10° SSE 16:47:17 40° E 16:51:07 10° NNE
Cosmos 1726 4.1 16:44:29 10° SW 16:47:46 32° WNW 16:51:04 10° N
COSMO-SKYMED 1 2.6 16:45:14 10° NNE 16:49:36 87° WNW 16:53:57 10° SSW
SL-08 RB Rocket 3.7 16:46:51 10° SSE 16:51:15 57° ENE 16:55:45 10° N
Cosmos 1000 Rocket 4.5 16:45:38 10° N 16:51:43 59° ENE 16:57:48 10° SSE
Cosmos 494 Rocket 3.9 16:47:50 10° NNW 16:53:06 84° ENE 16:58:17 10° SSE
Cosmos 1356 4.1 16:50:56 10° NNW 16:54:16 55° W 16:57:35 10° S
Iridium 4 Rocket 3.6 16:51:27 10° NNE 16:55:28 36° E 16:59:43 10° SSE
USA 215 4.3 16:51:58 10° NE 16:57:52 38° N 17:03:46 10° WNW
X-37B 1.8 16:55:37 10° SW 16:58:24 28° SSE 16:59:15 24° SE
Cosmos 1892 Rocket 3.5 16:59:37 10° N 17:04:06 65° E 17:08:30 10° SSE
Cosmos 1821 Rocket 4.0 17:00:53 10° S 17:07:16 82° E 17:13:41 10° N
CZ-4B R/B 4.5 17:06:58 10° S 17:12:19 45° W 17:17:46 10° NNW
Feng Yun 1-1 Rocket 4.3 17:07:14 10° SSE 17:12:44 82° WSW 17:18:24 10° NNW
H-2A R/B 2.7 17:08:44 10° S 17:13:10 77° WSW 17:17:29 10° NNW
Cosmos 2150 Rocket 4.2 17:08:55 10° SSW 17:14:22 80° WNW 17:19:48 10° NNE
Cosmos 405 Rocket 2.7 17:12:15 10° N 17:16:09 64° ENE 17:19:15 16° SSE
ATLAS 5 CENTAUR R/B 1.8 17:18:24 10° S 17:21:57 38° ESE 17:21:57 38° ESE
H-2A R/B 3.8 17:17:18 10° SSW 17:22:09 36° W 17:27:07 10° NNW
Cosmos 2369 3.7 17:17:43 10° SSW 17:23:23 84° WNW 17:29:07 10° NNE
Cosmos 1607 4.0 17:25:09 10° NW 17:31:27 77° WSW 17:36:20 17° SSE
ATLAS 3B R/B 3.2 17:27:19 10° SW 17:33:46 59° NW 17:40:35 10° NE
Cosmos 1626 Rocket 3.8 17:30:06 10° N 17:33:56 44° ENE 17:33:56 44° ENE
Cosmos 1934 Rocket 3.8 17:28:44 10° S 17:34:50 72° E 17:40:55 10° NNE
Cosmos 724 4.3 17:33:57 10° NNW 17:39:55 63° NE 17:41:48 42° ESE
Okean O Rocket 4.0 17:36:38 10° SSW 17:40:07 23° W 17:43:38 10° NW
Cosmos 1980 Rocket 2.2 17:34:28 10° SSW 17:40:08 81° WNW 17:45:52 10° NNE
IRS-1C Rocket 4.2 17:36:15 10° S 17:41:29 78° WSW 17:46:47 10° NNW
Cosmos 2123 Rocket 3.9 17:35:15 10° N 17:41:38 87° E 17:47:57 10° S
Cosmos 2263 Rocket 2.0 17:38:56 10° NNW 17:44:32 79° ENE 17:46:42 39° SE
BREEZE-M DEB (TANK) 2.9 17:40:43 10° WNW 17:46:00 65° N 17:46:00 65° N
CSL-04 Debris 4.0 17:42:43 20° SSE 17:46:32 85° ENE 17:51:58 10° NNW
Okean-O 2.6 17:43:54 23° S 17:46:36 79° WSW 17:51:04 10° NNW
SJ-6B 4.5 17:51:32 23° NNE 17:51:32 23° NNE 17:53:12 10° N
OBJECT-B 3.5 17:53:29 12° N 17:53:29 12° N 17:53:46 10° N
YAOGAN 1 3.9 17:47:17 10° SSW 17:51:21 39° W 17:55:26 10° NNW
Cosmos 1455 Rocket 4.0 17:53:14 10° SSW 17:57:30 48° WNW 18:01:49 10° N
Cosmos 1697 Rocket 4.3 17:54:29 10° WSW 17:59:37 34° NW 18:04:46 10° NNE
Resurs 01 Rocket 4.1 18:02:48 11° NNE 18:02:48 11° NNE 18:03:08 10° NNE
Okean 1-7 Rocket 3.9 17:56:09 10° NNW 18:00:31 65° W 18:02:01 39° SSW
H-2A R/B 2.9 17:59:00 10° N 18:02:56 47° WNW 18:06:53 10° SW
Gbstr 26 Del rocket 4.4 17:56:05 10° WNW 18:03:32 89° NNE 18:06:07 49° ESE
Cosmos 1269 Rocket 4.2 18:00:29 10° NNW 18:05:47 72° WSW 18:07:22 45° S
Cosmos 2278 4.0 18:01:58 10° SW 18:07:36 67° WNW 18:13:18 10° NNE
CZ-4 R/B 3.6 18:04:43 10° SSW 18:07:57 24° W 18:11:15 10° NW
CSL-04 Rocket 3.9 18:05:31 27° S 18:08:36 71° WSW 18:14:10 10° NNW
Cosmos 1544 Rocket 4.0 18:06:07 10° SSW 18:10:31 61° WNW 18:14:59 10° N
Meteor 1-11 4.3 18:05:39 10° NNW 18:11:13 71° W 18:13:52 32° S
Cosmos 2344 4.3 18:02:47 10° NW 18:11:36 64° NE 18:15:35 43° ESE
Cosmos 1844 Rocket 3.8 18:15:45 10° NNW 18:19:24 31° NNE 18:19:24 31° NNE
SL-16 R/B 4.3 18:19:54 10° SSW 18:20:39 14° SSW 18:20:39 14° SSW
Cosmos 1605 Rocket 4.2 18:26:25 10° SSW 18:32:35 68° W 18:38:55 10° N
BREEZE-M DEB (TANK) 4.4 18:23:17 10° W 18:32:57 62° NNW 18:32:57 62° NNW
Lacrosse 4 Rocket 3.6 18:30:17 10° NNW 18:31:40 19° NNW 18:31:40 19° NNW
Ariane Rocket 4.4 18:38:02 30° N 18:38:02 30° N 18:40:35 10° N
USA 215 4.0 18:39:09 37° NNE 18:39:58 38° N 18:45:54 10° NW
ATLAS 5 CENTAUR R/B 4.3 19:03:07 10° W 19:03:32 12° W 19:03:32 12° W
BREEZE M DEB (TANK) 4.4 18:57:52 10° W 19:20:07 76° N 19:20:25 75° N
CENTAUR R/B 4.4 19:47:44 10° NW 19:53:07 28° N 19:53:07 28° N
